Left ArrowRight Arrow

40.97296, -117.73568

Hourly Observations for June 17, 2024

Temp ( °F °C ) Dew Point ( °F °C ) Humidity (%) Winds ( mph kmh ) Pressure ( in mb ) Visibility ( mi km ) Precip ( " mm )
12:56 am 00:56 Clear 58 14.4 28 -2.2 32 32 NNW 5 7 29.65 1004 10 16 0.01 0.13
1:56 am 01:56 Clear with Light Rain 52 11.1 27 -2.8 38 38 NNW 10 17 29.67 1005 10 16 0.01 0.13
2:56 am 02:56 Mostly Clear 48 8.9 28 -2.2 46 46 WNW 8 13 29.68 1005 10 16 0.01 0.13
3:56 am 03:56 Clear 48 8.9 32 0 54 54 NNW 7 11 29.69 1005 10 16 0.00 0.00
4:56 am 04:56 Cloudy with Light Rain 49 9.4 33 0.6 54 54 NNW 17 28 29.70 1006 10 16 0.01 0.13
5:56 am 05:56 Cloudy with Light Rain 48 8.9 28 -2.2 46 46 NNW 15 24 29.73 1007 10 16 0.01 0.13
6:56 am 06:56 Cloudy with Light Rain 45 7.2 31 -0.6 58 58 NNW 9 15 29.79 1009 10 16 0.01 0.13
7:56 am 07:56 Cloudy with Light Rain 48 8.9 28 -2.2 46 46 NNW 12 19 29.82 1010 10 16 0.01 0.13
8:56 am 08:56 Partly Cloudy with Light Rain 51 10.6 26 -3.3 37 37 NW 16 26 29.84 1011 10 16 0.01 0.13
9:56 am 09:56 Partly Cloudy with Light Rain 52 11.1 23 -5 32 32 NNW 14 22 29.86 1011 10 16 0.01 0.13
10:56 am 10:56 Mostly Cloudy with Light Rain 55 12.8 23 -5 28 28 NNW 12 19 29.88 1012 10 16 0.01 0.13
11:56 am 11:56 Sunny with Light Rain 58 14.4 18 -7.8 21 21 NNW 16 26 29.89 1012 10 16 0.01 0.13
12:56 pm 12:56 Partly Cloudy with Light Rain 60 15.6 18 -7.8 19 19 NNW 13 20 29.91 1013 10 16 0.01 0.13
1:56 pm 13:56 Sunny with Light Rain 61 16.1 18 -7.8 19 19 NNW 9 15 29.91 1013 10 16 0.01 0.13
2:56 pm 14:56 Sunny with Light Rain 63 17.2 17 -8.3 17 17 NNW 12 19 29.92 1013 10 16 0.01 0.13
3:56 pm 15:56 Sunny with Light Rain 64 17.8 16 -8.9 15 15 VRB 7 11 29.91 1013 10 16 0.01 0.13
4:56 pm 16:56 Sunny 64 17.8 15 -9.4 15 15 NNW 13 20 29.90 1013 10 16 0.01 0.13
5:56 pm 17:56 Sunny 64 17.8 15 -9.4 15 15 N 5 7 29.91 1013 10 16 0.01 0.13
6:56 pm 18:56 Sunny 63 17.2 15 -9.4 15 15 NNE 5 7 29.93 1013 10 16 0.01 0.13
7:56 pm 19:56 Sunny 61 16.1 17 -8.3 18 18 N 7 11 29.93 1014 10 16 0.00 0.00
8:56 pm 20:56 Clear 56 13.3 16 -8.9 20 20 NE 7 11 29.95 1014 10 16 0.00 0.00
9:56 pm 21:56 Clear 42 5.6 14 -10 31 31 SW 3 6 30.00 1016 10 16 0.00 0.00
10:56 pm 22:56 Clear 49 9.4 17 -8.3 28 28 ENE 7 11 29.96 1015 10 16 0.00 0.00
11:56 pm 23:56 Clear 40 4.4 14 -10 34 34 Calm 29.97 1015 10 16 0.00 0.00

Powered by Vaisala Xweather